HAZ1383 ZGKL-ZUUU

Flight info

Callsign HAZ1383
Flight time N/A
Altitude 36100
Route SJG9Y SJG B330 ELKAL W179 IGNAK IGNAK7U
Aircraft A321/M-SDE3FGHIRWY/LB1

Departure

Time 2026-05-06 07:02
Airport Guilin Liangjiang International Airport (ZGKL)

Arrival

Time N/A
Airport Chengdu Shuangliu International Airport (ZUUU)
Time Latitude Longitude Altitude Speed Heading
2026-05-06 06:45 25.21210 110.04398 579 ft 0 kts 185°
2026-05-06 06:49 25.21212 110.04398 579 ft 2 kts 185°
2026-05-06 06:49 25.21238 110.04403 581 ft 4 kts 200°
2026-05-06 06:49 25.21260 110.04417 579 ft 4 kts 237°
2026-05-06 06:50 25.21265 110.04434 579 ft 0 kts 275°
2026-05-06 06:55 25.21265 110.04433 579 ft 0 kts 275°
2026-05-06 06:56 25.21266 110.04420 582 ft 6 kts 275°
2026-05-06 06:56 25.21270 110.04375 579 ft 2 kts 275°
2026-05-06 06:56 25.21272 110.04346 579 ft 6 kts 275°
2026-05-06 06:57 25.21277 110.04289 579 ft 10 kts 275°
2026-05-06 06:57 25.21277 110.04202 582 ft 13 kts 254°
2026-05-06 06:57 25.21192 110.04153 583 ft 16 kts 187°
2026-05-06 06:57 25.21066 110.04140 579 ft 20 kts 185°
2026-05-06 06:58 25.20930 110.04126 581 ft 13 kts 185°
2026-05-06 06:58 25.20878 110.04118 582 ft 6 kts 198°
2026-05-06 06:58 25.20847 110.04077 584 ft 9 kts 246°
2026-05-06 06:58 25.20794 110.04027 584 ft 12 kts 197°
2026-05-06 06:59 25.20700 110.04009 581 ft 12 kts 207°
2026-05-06 06:59 25.20669 110.03962 580 ft 0 kts 249°
2026-05-06 06:59 25.20667 110.03955 580 ft 3 kts 249°
2026-05-06 06:59 25.20663 110.03945 581 ft 0 kts 249°
2026-05-06 07:00 25.20664 110.03944 578 ft 1 kts 258°
2026-05-06 07:00 25.20663 110.03923 579 ft 5 kts 270°
2026-05-06 07:00 25.20670 110.03868 579 ft 9 kts 289°
2026-05-06 07:00 25.20729 110.03828 580 ft 12 kts 359°
2026-05-06 07:01 25.20823 110.03836 581 ft 15 kts
2026-05-06 07:01 25.20974 110.03850 581 ft 33 kts
2026-05-06 07:01 25.21284 110.03881 581 ft 60 kts
2026-05-06 07:01 25.21921 110.03938 581 ft 121 kts
2026-05-06 07:02 25.22925 110.04028 588 ft 166 kts
2026-05-06 07:02 25.24106 110.04171 1001 ft 175 kts
2026-05-06 07:02 25.25355 110.04372 1447 ft 189 kts
2026-05-06 07:02 25.26708 110.04462 1806 ft 200 kts
2026-05-06 07:03 25.28138 110.04511 2143 ft 213 kts
2026-05-06 07:03 25.29684 110.04565 2472 ft 233 kts
2026-05-06 07:03 25.31379 110.04639 2821 ft 253 kts
2026-05-06 07:03 25.33146 110.04733 3160 ft 260 kts
2026-05-06 07:04 25.34954 110.04843 3502 ft 260 kts
2026-05-06 07:04 25.36765 110.04963 3837 ft 263 kts
2026-05-06 07:04 25.38597 110.05091 4177 ft 264 kts
2026-05-06 07:04 25.40445 110.05222 4522 ft 268 kts
2026-05-06 07:05 25.42293 110.05105 4862 ft 266 kts 338°
2026-05-06 07:05 25.43820 110.04020 5196 ft 261 kts 311°
2026-05-06 07:05 25.44976 110.02493 5525 ft 256 kts 302°
2026-05-06 07:05 25.45991 110.00863 5889 ft 258 kts 300°
2026-05-06 07:06 25.46995 109.99236 6228 ft 261 kts 302°
2026-05-06 07:06 25.48052 109.97602 6560 ft 262 kts 302°
2026-05-06 07:06 25.49152 109.95992 6879 ft 261 kts 304°
2026-05-06 07:06 25.50280 109.94409 7207 ft 263 kts 305°
2026-05-06 07:07 25.51433 109.92831 7538 ft 265 kts 304°
2026-05-06 07:07 25.52617 109.91261 7885 ft 273 kts 307°
2026-05-06 07:07 25.53918 109.89646 8225 ft 285 kts 308°
2026-05-06 07:07 25.55266 109.88029 8564 ft 288 kts 308°
2026-05-06 07:08 25.56623 109.86422 8907 ft 289 kts 308°
2026-05-06 07:08 25.57997 109.84786 9246 ft 294 kts 308°
2026-05-06 07:08 25.59383 109.83127 10090 ft 293 kts 308°